Faith, SD

11:41 AM MDT on October 19, 2017 (GMT -0600)
Faith

Weather History for KD07 - May, 2009

Change the Weather History Date:

Wednesday, May 13, 2009

  Actual Average Record
Temperature  
Mean Temperature 44 °F 54 °F  
Max Temperature 53 °F 66 °F 95 °F (2001)
Min Temperature 34 °F 42 °F 27 °F (2004)
Degree Days  
Heating Degree Days 21 11  
Month to date heating degree days 188 164  
Since 1 July heating degree days 7638 7463  
Cooling Degree Days 0 0  
Month to date cooling degree days 0 0  
Year to date cooling degree days 0 1  
Moisture  
Dew Point 34 °F    
Average Humidity 67    
Maximum Humidity 92    
Minimum Humidity 42    
Precipitation  
Precipitation 0.00 in 0.10 in 0.22 in (2003)
Month to date precipitation 1.17 1.24  
Year to date precipitation 4.51 4.47  
Sea Level Pressure  
Sea Level Pressure 29.82 in    
Wind  
Wind Speed 24 mph (WNW)    
Max Wind Speed 51 mph    
Max Gust Speed 61 mph    
T = Trace of Precipitation, MM = Missing Value Source: NWS Daily Summary

Daily Weather History Graph

Daily Weather History Graph

Search for Another Location

Airport or City:

Trip Planner

Search our weather history database for the weather conditions in past years. The results will help you decide how hot, cold, wet, or windy it might be!

Date:

Astronomy

May. 13, 2009 Rise Set
Actual Time 5:20 AM MDT 8:08 PM MDT
Civil Twilight 4:46 AM MDT 8:42 PM MDT
Nautical Twilight 4:03 AM MDT 9:26 PM MDT
Astronomical Twilight 3:13 AM MDT 10:16 PM MDT
Moon No Moon Rise 8:27 AM MDT (5/13)
Length of Visible Light 15h 55m
Length of Day
14h 47m
Waning Gibbous, 81% of the Moon is Illuminated
May 13
Waning Gibbous
May 17
Last Quarter
May 24
New
May 30
First Quarter
Jun 7
Full

Hourly Weather History & Observations

Time (MDT) Temp. Windchill Dew Point Humidity Pressure Visibility Wind Dir Wind Speed Gust Speed Precip Events Conditions
12:56 AM 48.9 °F - 45.0 °F 86% 29.58 in - West 17.3 mph - N/A   Unknown
1:56 AM 48.0 °F - 43.0 °F 83% 29.59 in - WSW 13.8 mph - N/A   Unknown
2:56 AM 45.0 °F 38.5 °F 42.1 °F 90% 29.60 in - WSW 13.8 mph - N/A   Unknown
3:56 AM 44.1 °F 36.5 °F 39.9 °F 85% 29.60 in - West 17.3 mph - N/A   Unknown
4:56 AM 43.0 °F 35.7 °F 39.0 °F 86% 29.62 in - West 15.0 mph - N/A   Unknown
5:56 AM 43.0 °F 35.1 °F 37.9 °F 82% 29.67 in - West 17.3 mph - N/A   Unknown
6:56 AM 45.0 °F 36.9 °F 35.1 °F 68% 29.69 in - West 20.7 mph - N/A   Unknown
7:56 AM 46.9 °F - 33.1 °F 59% 29.71 in - West 24.2 mph 32.2 mph N/A   Unknown
8:56 AM 48.9 °F - 30.0 °F 48% 29.73 in - WNW 25.3 mph 36.8 mph N/A   Unknown
9:56 AM 50.0 °F - 28.0 °F 43% 29.75 in - WNW 29.9 mph 36.8 mph N/A   Unknown
10:56 AM 51.1 °F - 30.0 °F 44% 29.75 in - West 32.2 mph 41.4 mph N/A   Unknown
11:56 AM 48.0 °F - 34.0 °F 58% 29.80 in - WNW 35.7 mph 50.6 mph N/A   Unknown
12:56 PM 41.0 °F 30.0 °F 37.0 °F 86% 29.83 in - West 28.8 mph 44.9 mph N/A   Unknown
1:56 PM 46.0 °F 36.9 °F 34.0 °F 63% 29.83 in - WNW 28.8 mph 46.0 mph N/A   Unknown
2:56 PM 44.1 °F 33.0 °F 30.0 °F 58% 29.86 in - WNW 36.8 mph 46.0 mph N/A   Unknown
3:56 PM 43.0 °F 31.5 °F 28.9 °F 58% 29.89 in - WNW 36.8 mph 47.2 mph N/A   Unknown
4:56 PM 42.1 °F 30.8 °F 28.0 °F 58% 29.93 in - WNW 33.4 mph 43.7 mph N/A   Unknown
5:56 PM 41.0 °F 29.1 °F 28.9 °F 62% 29.96 in - WNW 34.5 mph 44.9 mph N/A   Unknown
6:56 PM 42.1 °F 31.9 °F 30.0 °F 62% 29.97 in - NW 26.5 mph 43.7 mph N/A   Unknown
7:56 PM 39.0 °F 27.2 °F 30.9 °F 73% 30.01 in - NW 29.9 mph 41.4 mph N/A   Unknown
8:56 PM 39.0 °F 28.5 °F 33.1 °F 79% 30.04 in - NW 23.0 mph 33.4 mph N/A   Unknown
9:56 PM 37.9 °F 27.3 °F 33.1 °F 83% 30.06 in - WNW 21.9 mph - N/A   Unknown
10:56 PM 37.0 °F 27.4 °F 33.1 °F 86% 30.07 in - NW 17.3 mph - N/A   Unknown
11:56 PM 35.1 °F 28.6 °F 32.0 °F 89% 30.10 in - NW 8.1 mph - N/A   Unknown